Location: Brantley
(31.5822°N, 86.2569°W)
Time: 03:38:26
(UTC+00:00)

Vanguard 2 - Pass Details

Date: 17 February 2026
Orbit: 553 x 2896 km, 32.9° (Epoch: 7 March)

Event Time Altitude Azimuth Distance (km) Brightness Sun altitude
Rises 12:20:54 0° 258° (WSW) 3,551 10.4 -1.6°
Reaches altitude 10° 12:23:52 10° 258° (WSW) 2,336 9.5 -1.0°
Maximum altitude 12:28:59 89° 179° (S) 620 7.2 0.1°
Drops below altitude 10° 12:32:59 10° 80° (E) 1,834 10.9 0.9°
Sets 12:35:04 0° 80° (E) 2,716 11.8 1.3°
